TimeCST,TemperatureF,Dew PointF,Humidity,Sea Level PressureIn,VisibilityMPH,Wind Direction,Wind SpeedMPH,Gust SpeedMPH,PrecipitationIn,Events,Conditions,WindDirDegrees,DateUTC
12:15 AM,35.6,15.8,44,30.03,10.0,NW,12.7,21.9,N/A,,Partly Cloudy,320,2014-01-17 06:15:00
12:35 AM,33.8,17.6,52,30.05,10.0,NNW,12.7,21.9,N/A,,Scattered Clouds,330,2014-01-17 06:35:00
12:55 AM,33.8,15.8,48,30.05,10.0,NW,17.3,21.9,N/A,,Partly Cloudy,320,2014-01-17 06:55:00
1:15 AM,32.0,14.0,48,30.05,10.0,NW,16.1,20.7,N/A,,Clear,310,2014-01-17 07:15:00
1:35 AM,32.0,10.4,41,30.06,10.0,NW,21.9,32.2,N/A,,Clear,310,2014-01-17 07:35:00
1:55 AM,30.2,10.4,44,30.07,10.0,NW,15.0,25.3,N/A,,Clear,320,2014-01-17 07:55:00
2:15 AM,30.2,5.0,34,30.08,10.0,NW,15.0,21.9,N/A,,Clear,320,2014-01-17 08:15:00
2:35 AM,28.4,6.8,40,30.09,10.0,NW,13.8,24.2,N/A,,Clear,310,2014-01-17 08:35:00
2:55 AM,28.4,6.8,40,30.09,10.0,NW,15.0,20.7,N/A,,Clear,310,2014-01-17 08:55:00
3:15 AM,28.4,6.8,40,30.10,10.0,NW,11.5,17.3,N/A,,Clear,310,2014-01-17 09:15:00
3:35 AM,26.6,8.6,47,30.10,10.0,WNW,12.7,17.3,N/A,,Clear,300,2014-01-17 09:35:00
3:55 AM,26.6,8.6,47,30.10,10.0,WNW,12.7,20.7,N/A,,Clear,300,2014-01-17 09:55:00
4:15 AM,26.6,6.8,43,30.10,10.0,NW,12.7,25.3,N/A,,Clear,320,2014-01-17 10:15:00
4:35 AM,26.6,6.8,43,30.10,10.0,NW,12.7,-,N/A,,Clear,310,2014-01-17 10:35:00
4:55 AM,26.6,8.6,47,30.10,10.0,WNW,13.8,21.9,N/A,,Clear,300,2014-01-17 10:55:00
5:15 AM,26.6,6.8,43,30.10,10.0,NW,13.8,25.3,N/A,,Clear,310,2014-01-17 11:15:00
5:35 AM,24.8,5.0,43,30.11,10.0,NW,13.8,19.6,N/A,,Clear,310,2014-01-17 11:35:00
5:55 AM,24.8,6.8,46,30.11,10.0,WNW,11.5,18.4,N/A,,Clear,300,2014-01-17 11:55:00
6:15 AM,24.8,6.8,46,30.11,10.0,WNW,11.5,18.4,N/A,,Clear,300,2014-01-17 12:15:00
6:35 AM,24.8,6.8,46,30.11,10.0,WNW,11.5,16.1,N/A,,Clear,300,2014-01-17 12:35:00
6:55 AM,24.8,6.8,46,30.12,10.0,WNW,16.1,21.9,N/A,,Clear,300,2014-01-17 12:55:00
7:15 AM,24.8,6.8,46,30.12,10.0,WNW,16.1,24.2,N/A,,Clear,300,2014-01-17 13:15:00
7:35 AM,24.8,3.2,40,30.13,10.0,NW,18.4,25.3,N/A,,Clear,310,2014-01-17 13:35:00
7:55 AM,24.8,3.2,40,30.14,10.0,NW,12.7,20.7,N/A,,Clear,310,2014-01-17 13:55:00
8:15 AM,24.8,3.2,40,30.14,10.0,NW,12.7,18.4,N/A,,Clear,310,2014-01-17 14:15:00
8:35 AM,24.8,5.0,43,30.15,10.0,WNW,11.5,-,N/A,,Clear,300,2014-01-17 14:35:00
8:55 AM,24.8,5.0,43,30.15,10.0,NW,16.1,24.2,N/A,,Clear,310,2014-01-17 14:55:00
9:15 AM,26.6,3.2,37,30.17,10.0,WNW,17.3,25.3,N/A,,Clear,300,2014-01-17 15:15:00
9:35 AM,26.6,3.2,37,30.18,10.0,NW,15.0,24.2,N/A,,Clear,310,2014-01-17 15:35:00
9:55 AM,26.6,3.2,37,30.19,10.0,NW,17.3,26.5,N/A,,Clear,310,2014-01-17 15:55:00
10:15 AM,28.4,3.2,34,30.19,10.0,NW,19.6,25.3,N/A,,Clear,310,2014-01-17 16:15:00
10:35 AM,28.4,1.4,31,30.19,10.0,WNW,16.1,21.9,N/A,,Clear,290,2014-01-17 16:35:00
10:55 AM,30.2,3.2,32,30.19,10.0,WNW,17.3,23.0,N/A,,Clear,300,2014-01-17 16:55:00
11:15 AM,30.2,3.2,32,30.19,10.0,NW,15.0,21.9,N/A,,Clear,310,2014-01-17 17:15:00
11:35 AM,30.2,1.4,29,30.18,10.0,NW,16.1,24.2,N/A,,Clear,320,2014-01-17 17:35:00
11:55 AM,32.0,3.2,30,30.17,10.0,NW,15.0,-,N/A,,Clear,310,2014-01-17 17:55:00
12:15 PM,32.0,1.4,27,30.16,10.0,WNW,18.4,24.2,N/A,,Clear,300,2014-01-17 18:15:00
12:35 PM,32.0,1.4,27,30.16,10.0,WNW,17.3,24.2,N/A,,Clear,300,2014-01-17 18:35:00
12:55 PM,33.8,3.2,28,30.15,10.0,NW,16.1,26.5,N/A,,Clear,310,2014-01-17 18:55:00
1:15 PM,33.8,1.4,25,30.15,10.0,WNW,13.8,25.3,N/A,,Clear,300,2014-01-17 19:15:00
1:35 PM,33.8,3.2,28,30.15,10.0,WNW,19.6,24.2,N/A,,Clear,300,2014-01-17 19:35:00
1:55 PM,33.8,3.2,28,30.15,10.0,NW,18.4,25.3,N/A,,Clear,320,2014-01-17 19:55:00
2:15 PM,35.6,5.0,28,30.15,10.0,WNW,18.4,21.9,N/A,,Clear,290,2014-01-17 20:15:00
2:35 PM,35.6,5.0,28,30.15,10.0,NW,16.1,24.2,N/A,,Clear,310,2014-01-17 20:35:00
2:55 PM,35.6,5.0,28,30.15,10.0,WNW,19.6,25.3,N/A,,Clear,290,2014-01-17 20:55:00
3:15 PM,35.6,5.0,28,30.15,10.0,WNW,17.3,23.0,N/A,,Clear,300,2014-01-17 21:15:00
3:35 PM,35.6,3.2,26,30.16,10.0,NW,12.7,24.2,N/A,,Clear,310,2014-01-17 21:35:00
3:55 PM,35.6,3.2,26,30.16,10.0,NW,15.0,24.2,N/A,,Clear,320,2014-01-17 21:55:00
4:15 PM,35.6,3.2,26,30.17,10.0,NW,10.4,17.3,N/A,,Clear,320,2014-01-17 22:15:00
4:35 PM,35.6,3.2,26,30.16,10.0,NW,9.2,-,N/A,,Clear,320,2014-01-17 22:35:00
4:55 PM,35.6,6.8,30,30.16,10.0,NW,9.2,-,N/A,,Clear,310,2014-01-17 22:55:00
5:15 PM,35.6,6.8,30,30.16,10.0,WNW,8.1,16.1,N/A,,Clear,300,2014-01-17 23:15:00
5:35 PM,33.8,8.6,35,30.16,10.0,NW,5.8,-,N/A,,Clear,310,2014-01-17 23:35:00
5:55 PM,32.0,8.6,38,30.15,10.0,West,3.5,-,N/A,,Clear,260,2014-01-17 23:55:00
6:15 PM,30.2,8.6,40,30.15,10.0,WSW,3.5,-,N/A,,Clear,250,2014-01-18 00:15:00
6:35 PM,30.2,8.6,40,30.14,10.0,WSW,3.5,-,N/A,,Clear,240,2014-01-18 00:35:00
6:55 PM,30.2,8.6,40,30.14,10.0,SW,4.6,-,N/A,,Clear,230,2014-01-18 00:55:00
7:15 PM,30.2,8.6,40,30.14,10.0,West,4.6,-,N/A,,Clear,260,2014-01-18 01:15:00
7:35 PM,28.4,8.6,43,30.14,10.0,WSW,3.5,-,N/A,,Clear,240,2014-01-18 01:35:00
7:55 PM,28.4,8.6,43,30.13,10.0,WSW,3.5,-,N/A,,Clear,240,2014-01-18 01:55:00
8:15 PM,26.6,8.6,47,30.13,10.0,Calm,Calm,-,N/A,,Clear,0,2014-01-18 02:15:00
8:35 PM,26.6,8.6,47,30.13,10.0,South,3.5,-,N/A,,Clear,190,2014-01-18 02:35:00
8:55 PM,24.8,10.4,54,30.12,10.0,SSW,4.6,-,N/A,,Clear,200,2014-01-18 02:55:00
9:15 PM,26.6,8.6,47,30.13,10.0,SW,4.6,-,N/A,,Clear,220,2014-01-18 03:15:00
9:35 PM,26.6,10.4,51,30.13,10.0,SW,4.6,-,N/A,,Clear,220,2014-01-18 03:35:00
9:55 PM,26.6,8.6,47,30.13,10.0,SSW,4.6,-,N/A,,Clear,210,2014-01-18 03:55:00
10:15 PM,26.6,8.6,47,30.12,10.0,SSW,3.5,-,N/A,,Clear,200,2014-01-18 04:15:00
10:35 PM,24.8,10.4,54,30.12,10.0,South,4.6,-,N/A,,Clear,190,2014-01-18 04:35:00
10:55 PM,24.8,10.4,54,30.11,10.0,South,3.5,-,N/A,,Clear,190,2014-01-18 04:55:00
11:15 PM,23.0,10.4,59,30.10,10.0,South,4.6,-,N/A,,Clear,170,2014-01-18 05:15:00
11:35 PM,24.8,10.4,54,30.09,10.0,South,4.6,-,N/A,,Clear,180,2014-01-18 05:35:00
11:55 PM,24.8,10.4,54,30.08,10.0,South,4.6,-,N/A,,Clear,190,2014-01-18 05:55:00